NOAA 16 DEB, 41209

Orbit data source: Space-Track

NOAA 16 DEB, 41209 is space debris in SSO originally from a launch on Thu, 21 Sep 2000 UTC launched from the Air Force Western Test Range (AFWTR). Debris objects in space refer to the collection of defunct objects orbiting the Earth. Examples of debris include non-operational satellites, rocket bodies, and fragments generated from explosions, collisions, or faulty payload assembly.

Loading next visibility...
Identifier
41209, 2000-055DN
Orbit
SSO
Country
Flag of USUS
Related business
Manufacturer
Unknown
Mission
Spacecraft
Bus & Motor
Unknown
Mass
Unknown
Launch date (UTC)
2000-09-21 (25 years ago)
Launch vehicle
Unknown
Launch site
Air Force Western Test Range (AFWTR)
Object type
Payload
Rocket body
Debris
Shape & HBR
Unknown shape, 0.1 m
Radar Cross Section
Small (<0.1 m²)

Expand to show TLE details & history
Last TLE update: 21 hours ago

TLE from 21 hours ago
0 NOAA 16 DEB
1 41209U 00055DN  25286.58313918  .00023163  00000-0  40030-2 0  9991
2 41209  98.9112 151.8998 0039488 311.1746  48.6053 14.67875899514734
Epoch: 2025-10-13T13:59Z
TLE epoch observation values (Epoch: 2025-10-13T13:59:43.225Z)
Latitude
0.00006°
Longitude
-80.41415°
Altitude
652.491 km
Speed
7.541 km/s
True Right ascension
10h 07m 35s
True Declination
0° 00' 00"
Sunlit
Object was in daylight at epoch
Visualization orbit readout
Latitude
Unknown
Longitude
Unknown
Altitude
Unknown
Speed
Unknown
Apparent Right ascension
Unknown
Apparent Declination
Unknown
Sunlit
N/A
Visualization observer readout
Local Sidereal Time
05:23:10
Azimuth
Unknown
Elevation
Unknown
Doppler factor
Unknown
Orbital elements
Apogee altitude
692.774 km
Perigee altitude
637.15 km
Semi-major axis
7,043.099 km
Eccentricity
0.00395
Inclination
98.9112°
RAAN
151.8998°
Arg. of periapsis
311.1746°
True anomaly
48.94586°
Mean anomaly
48.6053°
Eccentric anomaly
48.77547°
Mean motion
3.67196 °/min
Orbital period
98.04 mins
BSTAR
0.004003
Loading maneuver chart data...
Computing Atmospheric mass density...
Loading historical data...
Loading historical data...
Loading historical data...
Loading historical data...
Loading historical data...
Loading historical data...
Loading historical data...

Documentation

Showing up to 5 results
|